Selinsgrove, PA

9:02 PM EDT on March 27, 2017 (GMT -0400)
Penn Valley

Weather History for KSEG - August, 2013

Change the Weather History Date:

Friday, August 23, 2013

  Actual Average (KIPT) Record (KIPT)
Temperature  
Mean Temperature 70 °F -  
Max Temperature 81 °F 78 °F 97 °F (1936)
Min Temperature 59 °F 58 °F 43 °F (1923)
Cooling Degree Days 5    
Growing Degree Days 20 (Base 50)    
Moisture  
Dew Point 62 °F    
Average Humidity 87    
Maximum Humidity 100    
Minimum Humidity 46    
Precipitation  
Precipitation 0.00 in - - ()
Sea Level Pressure  
Sea Level Pressure 30.02 in    
Wind  
Wind Speed 1 mph (NNW)    
Max Wind Speed 6 mph    
Max Gust Speed -    
Visibility 5 miles    
Events Fog    
Averages and records for this station are not official NWS values.
T = Trace of Precipitation, MM = Missing Value Source: NWS Daily Summary

Daily Weather History Graph

Daily Weather History Graph

Search for Another Location

Airport or City:

Trip Planner

Search our weather history database for the weather conditions in past years. The results will help you decide how hot, cold, wet, or windy it might be!

Date:

Astronomy

Aug. 23, 2013 Rise Set
Actual Time 6:25 AM EDT 7:53 PM EDT
Civil Twilight 5:56 AM EDT 8:22 PM EDT
Nautical Twilight 5:22 AM EDT 8:56 PM EDT
Astronomical Twilight 4:45 AM EDT 9:33 PM EDT
Moon 9:09 PM EDT (8/23) 9:20 AM EDT (8/23)
Length of Visible Light 14h 25m
Length of Day
13h 27m
Waning Gibbous, 91% of the Moon is Illuminated
Aug 23
Waning Gibbous
Aug 28
Last Quarter
Sep 5
New
Sep 12
First Quarter
Sep 19
Full

Hourly Weather History & Observations

Time (EDT) Temp. Heat Index Dew Point Humidity Pressure Visibility Wind Dir Wind Speed Gust Speed Precip Events Conditions
12:00 AM 66.2 °F - 64.4 °F 94% 29.98 in 0.8 mi Calm Calm - N/A   Mist
12:38 AM 66.2 °F - 64.4 °F 94% 29.99 in 1.0 mi Calm Calm - N/A   Mostly Cloudy
12:53 AM 64.9 °F - 64.0 °F 97% 29.98 in 1.0 mi Calm Calm - N/A   Scattered Clouds
1:00 AM 64.4 °F - 64.4 °F 100% 29.99 in 1.2 mi Calm Calm - N/A   Scattered Clouds
1:04 AM 64.4 °F - 64.4 °F 100% 29.99 in 0.8 mi Calm Calm - N/A   Mist
1:53 AM 64.9 °F - 64.0 °F 97% 29.98 in 0.5 mi Calm Calm - N/A Fog Fog
2:21 AM 64.4 °F - 62.6 °F 94% 29.98 in 1.2 mi Calm Calm - N/A   Scattered Clouds
2:27 AM 64.4 °F - 62.6 °F 94% 29.98 in 3.0 mi Calm Calm - N/A   Scattered Clouds
2:36 AM 64.4 °F - 62.6 °F 94% 29.98 in 2.0 mi Calm Calm - N/A   Partly Cloudy
2:48 AM 64.4 °F - 62.6 °F 94% 29.98 in 4.0 mi Calm Calm - N/A   Partly Cloudy
2:53 AM 64.0 °F - 63.0 °F 96% 29.97 in 5.0 mi Calm Calm - N/A   Partly Cloudy
3:53 AM 63.0 °F - 62.1 °F 97% 29.96 in 3.0 mi Calm Calm - N/A   Clear
4:03 AM 62.6 °F - 62.6 °F 100% 29.97 in 2.5 mi Calm Calm - N/A   Clear
4:25 AM 62.6 °F - 62.6 °F 100% 29.97 in 3.0 mi Calm Calm - N/A   Clear
4:50 AM 62.6 °F - 62.6 °F 100% 29.98 in 2.5 mi Calm Calm - N/A   Clear
4:53 AM 63.0 °F - 62.1 °F 97% 29.97 in 2.5 mi Calm Calm - N/A   Clear
5:00 AM 62.6 °F - 62.6 °F 100% 29.98 in 3.0 mi Calm Calm - N/A   Clear
5:14 AM 62.6 °F - 62.6 °F 100% 29.98 in 2.5 mi Calm Calm - N/A   Partly Cloudy
5:22 AM 62.6 °F - 62.6 °F 100% 29.98 in 1.8 mi Calm Calm - N/A   Mostly Cloudy
5:33 AM 62.6 °F - 62.6 °F 100% 29.99 in 2.5 mi Calm Calm - N/A   Mostly Cloudy
5:40 AM 62.6 °F - 62.6 °F 100% 29.99 in 3.0 mi Calm Calm - N/A   Mostly Cloudy
5:53 AM 63.0 °F - 62.1 °F 97% 29.99 in 3.0 mi Calm Calm - N/A   Scattered Clouds
6:15 AM 64.4 °F - 62.6 °F 94% 30.00 in 4.0 mi Calm Calm - N/A   Mostly Cloudy
6:53 AM 64.0 °F - 63.0 °F 96% 30.00 in 2.5 mi Calm Calm - N/A   Scattered Clouds
7:26 AM 64.4 °F - 62.6 °F 94% 30.02 in 3.0 mi Calm Calm - N/A   Clear
7:42 AM 64.4 °F - 64.4 °F 100% 30.03 in 3.0 mi Calm Calm - N/A   Partly Cloudy
7:53 AM 66.0 °F - 64.0 °F 93% 30.03 in 3.0 mi Calm Calm - N/A   Partly Cloudy
8:53 AM 68.0 °F - 66.0 °F 93% 30.04 in 5.0 mi Calm Calm - N/A   Partly Cloudy
9:53 AM 70.0 °F - 66.9 °F 90% 30.04 in 6.0 mi Calm Calm - N/A   Clear
10:53 AM 72.0 °F - 66.0 °F 81% 30.07 in 8.0 mi NNW 3.5 mph - N/A   Clear
11:40 AM 73.4 °F - 64.4 °F 73% 30.09 in 9.0 mi NNW 3.5 mph - N/A   Mostly Cloudy
11:53 AM 72.0 °F - 64.9 °F 78% 30.08 in 10.0 mi NNW 4.6 mph - N/A   Scattered Clouds
12:53 PM 73.0 °F - 63.0 °F 71% 30.07 in 10.0 mi Calm Calm - N/A   Clear
1:53 PM 75.0 °F - 63.0 °F 66% 30.07 in 10.0 mi Calm Calm - N/A   Clear
2:53 PM 78.1 °F - 63.0 °F 60% 30.05 in 10.0 mi Calm Calm - N/A   Clear
3:53 PM 79.0 °F - 59.0 °F 50% 30.04 in 10.0 mi NNW 4.6 mph - N/A   Partly Cloudy
4:53 PM 80.1 °F 80.6 °F 57.9 °F 47% 30.04 in 10.0 mi Calm Calm - N/A   Partly Cloudy
5:53 PM 79.0 °F - 57.9 °F 48% 30.04 in 10.0 mi NNW 3.5 mph - N/A   Mostly Cloudy
6:53 PM 78.1 °F - 55.9 °F 46% 30.04 in 10.0 mi Variable 5.8 mph - N/A   Mostly Cloudy
7:53 PM 71.1 °F - 55.9 °F 59% 30.06 in 10.0 mi North 4.6 mph - N/A   Clear
8:53 PM 64.9 °F - 57.9 °F 78% 30.10 in 10.0 mi North 4.6 mph - N/A   Clear
9:53 PM 63.0 °F - 57.9 °F 84% 30.13 in 10.0 mi NNW 3.5 mph - N/A   Clear
10:53 PM 60.1 °F - 57.0 °F 90% 30.14 in 10.0 mi Calm Calm - N/A   Clear
11:53 PM 59.0 °F - 55.9 °F 90% 30.17 in 10.0 mi North 3.5 mph - N/A   Clear